[Iaude] MPEC X187: 2023 XF6 [a=2.35,e=0.59,i=1.6,H=25.5]

mpec at marsden.cfa.harvard.edu mpec at marsden.cfa.harvard.edu
Sun Dec 10 19:56:40 EST 2023


M.P.E.C. 2023-X187                            Issued 2023 December 11, 00:55 UT

     The Minor Planet Electronic Circulars contain information on unusual
         minor planets, routine data on comets and natural satellites,
         and occasional editorial announcements.  They are published
    on behalf of Division F of the International Astronomical Union by the
          Minor Planet Center, Smithsonian Astrophysical Observatory,
                          Cambridge, MA 02138, U.S.A.
			  
             Prepared using the Tamkin Foundation Computer Network

                              MPC at CFA.HARVARD.EDU
            URL https://www.minorplanetcenter.net/    ISSN 1523-6714

                                    2023 XF6                                    


Observations:
     K23X06F 1C2023 12 05.32117 02 51 17.02 +07 31 52.3          20.3 GVEX187G96
     K23X06F 1C2023 12 05.33244 02 51 30.04 +07 32 49.7          19.7 GVEX187G96
     K23X06F* C2023 12 09.28183903 54 47.181+11 46 25.70         20.71wXEX187F52
     K23X06F  C2023 12 09.29291803 54 55.060+11 46 57.13         20.93wXEX187F52
     K23X06F  C2023 12 09.30411003 55 02.979+11 47 28.39         20.93wXEX187F52
     K23X06F  C2023 12 09.31517003 55 10.846+11 47 59.27         20.90wXEX187F52
     K23X06F  C2023 12 09.37855103 55 55.140+11 50 52.18         20.91GVEX187F52
     K23X06F  C2023 12 09.37936703 55 55.712+11 50 54.59         20.70GVEX187F52
     K23X06F mC2023 12 10.14250804 05 00.107+12 22 38.28         21.02GVEX187I52
     K23X06F mC2023 12 10.14328404 05 00.539+12 22 40.08         20.85GVEX187I52
     K23X06F mC2023 12 10.14405604 05 01.018+12 22 41.84         20.73GVEX187I52
     K23X06F mC2023 12 10.14483204 05 01.568+12 22 43.10         21.08GVEX187I52
     K23X06F KC2023 12 10.18537504 05 27.09 +12 24 18.3          21.4 GXEX187858
     K23X06F KC2023 12 10.19577104 05 33.72 +12 24 42.9          20.7 GXEX187858
     K23X06F  C2023 12 10.36210504 07 23.391+12 31 36.78         20.71GVEX187F52
     K23X06F  C2023 12 10.36292104 07 23.905+12 31 38.81         20.87GVEX187F52

Observer details:
858 Tebbutt Observatory, Edgewood.  Observer F. B. Zoltowski.  0.51-m f/8.1
    Schmidt-Cassegrain + CCD.
F52 Pan-STARRS 2, Haleakala.  Observers J. Herman, T. Lowe, P. Minguez, A.
    Schultz, I. Smith.  Measurers K. Chambers, T. de Boer, J. Fairlamb, H.
    Gao, M. Huber, C.-C. Lin, E. Magnier, Y. Ramanjooloo, R. Wainscoat, R.
    Weryk.  1.8-m Ritchey-Chretien + CCD.
G96 Mt. Lemmon Survey.  Observer J. K. Hogan.  Measurers B. Gray, D. Rankin,
    F. C. Shelly.  1.5-m reflector + 10K CCD.
I52 Steward Observatory, Mt. Lemmon Station.  Observer G. J. Leonard.
    Measurers E. C. Beshore, D. Fay, J. B. Fazekas, D. C. Fuls, A. R. Gibbs,
    A. D. Grauer, H. Groeller, J. K. Hogan, R. A. Kowalski, S. M. Larson, G.
    J. Leonard, D. Rankin, R. L. Seaman, F. C. Shelly, K. W. Wierzchos.  1.0-m
    prime focus + CCD.

Orbital elements:
2023 XF6                                                 Earth MOID = 0.0016 AU
Epoch 2023 Sept. 13.0 TT = JDT 2460200.5                Bell                    
M 345.22024              (2000.0)            P               Q                  
n   0.27391788     Peri.  160.54952     +0.82781129     -0.56054033             
a   2.3481317      Node   233.56487     +0.51087510     +0.77005551             
e   0.5912135      Incl.    1.62889     +0.23180833     +0.30464578             
P   3.60           H   25.51          G   0.15           U   8                  
Residuals in seconds of arc
231205 G96  0.1-  0.2+    231209 F52  0.2-  0.2-    231210 858  0.9+  0.1-
231205 G96  0.1+  0.2-    231209 F52  0.1-  0.0     231210 858  1.0+  0.4-
231209 F52  0.3-  0.4-    231210 I52  0.9+  0.5+    231210 F52  0.2-  0.2-
231209 F52  0.3-  0.1-    231210 I52  0.1-  0.4+    231210 F52  0.0   0.0
231209 F52  0.4-  0.1-    231210 I52  0.4-  0.3+
231209 F52  0.5+  0.1+    231210 I52  0.3+  0.4-

Ephemeris:
2023 XF6                 a,e,i = 2.35, 0.59, 2                   q = 0.9599
Date    TT    R. A. (2000) Decl.     Delta      r    Elong.  Phase     V
2023 11 11    20 12 45.6 -17 06 13   0.1263  0.9623    73.6    99.2    24.5
...
2023 11 26    22 57 23.5 -10 06 26   0.05600 0.9969    98.6    78.3    22.0
...
2023 12 04    02 23 07.7 +05 27 07   0.05515 1.0304   143.3    34.9    20.7
...
2023 12 10    04 03 18.1 +12 17 36   0.08003 1.0613   162.0    16.7    21.0
2023 12 11    04 14 06.3 +12 55 02   0.08530 1.0669   163.5    15.2    21.1
2023 12 12    04 23 42.5 +13 27 06   0.09079 1.0726   164.8    13.9    21.2
...
2023 12 18    05 03 40.1 +15 29 25   0.1271  1.1088   168.3    10.3    21.9
...
2023 12 26    05 31 47.3 +16 49 19   0.1822  1.1622   167.8    10.3    22.8
...
2024 01 10    05 57 55.6 +18 09 23   0.3039  1.2732   159.9    15.4    24.3

M. P. C. Staff               (C) Copyright 2023 MPC           M.P.E.C. 2023-X187




More information about the Iaude mailing list